Flag for United Arab Emirates Weather past 2 weeks in Ras al-Khaimah, Ras al-Khaimah, United Arab Emirates

Now
97 °F

Sunny.


Feels Like: 95 °F
Forecast: 75 / 106 °F
Wind: 7 mph from Northwest

Location: Ras Al Khaimah International Airport

Current Time: May 22, 2015 at 6:36:25 PM

Latest Report: May 22, 2015 at 6:00 PM


Visibility: 10 mi

Pressure: 29.68 "Hg

Humidity: 25%

Dew point: 55 °F

Location of Ras al-KhaimahLocation

Historic Weather in Ras al-Khaimah — Graph

°F

Ras al-Khaimah temperature yesterday

Maximum temperature yesterday: 108 °F (at 1:00 PM)
Minimum temperature yesterday: 70 °F (at 5:00 AM)
Average temperature yesterday: 87 °F

Past Weeks' High & Low Weather Summary

 TemperatureHumidityPressure
High111 °F (May 13, 12:00 PM)79% (May 13, 1:00 AM)29.83 "Hg (May 13, 1:00 AM)
Low70 °F (May 21, 5:00 AM)8% (May 15, 1:00 PM)29.62 "Hg (May 9, 2:00 AM)
Average91 °F36%29.71 "Hg
* Reported May 7 5:00 PM — May 22 5:00 PM, Ras al-Khaimah, Weather by CustomWeather, © 2015

Note: Actual official high and low records may vary slightly from our data, if they occured in-between our weather recording intervals... More about our weather records

Advertising

Ras al-Khaimah weather history for previous 24 hours

 ConditionsComfort  
Time TempWeatherWind HumidityBarometerVisibility
5:00 PM
Fri, May 22
99 °FSunny.8 mph21%29.68 "Hg10 mi
4:00 PM100 °FPassing clouds.10 mph16%29.68 "HgN/A
3:00 PM102 °FSunny.14 mph16%29.68 "Hg10 mi
2:00 PM102 °FPassing clouds.15 mph13%29.68 "HgN/A
1:00 PM106 °FPassing clouds.10 mph13%29.71 "HgN/A
12:00 PM106 °FPassing clouds.10 mph8%29.71 "HgN/A
11:00 AM102 °FPassing clouds.8 mph8%29.74 "HgN/A
10:00 AM100 °FPassing clouds.6 mph9%29.74 "HgN/A
9:00 AM97 °FPassing clouds.5 mph11%29.74 "HgN/A
8:00 AM91 °FSunny.2 mph21%29.71 "Hg10 mi
7:00 AM79 °FSunny.3 mph39%29.71 "Hg10 mi
6:00 AM73 °FSunny.5 mph47%29.71 "Hg10 mi
5:00 AM73 °FClear.6 mph50%29.68 "Hg10 mi
4:00 AM73 °FClear.5 mph53%29.68 "Hg10 mi
3:00 AM75 °FClear.3 mph57%29.68 "Hg10 mi
2:00 AM75 °FClear.2 mph57%29.68 "Hg10 mi
1:00 AM75 °FClear.3 mph61%29.68 "Hg10 mi
12:00 AM79 °FClear.3 mph54%29.71 "Hg10 mi
11:00 PM
Thu, May 21
81 °FClear.6 mph54%29.71 "Hg10 mi
10:00 PM82 °FClear.3 mph51%29.71 "Hg10 mi
9:00 PM84 °FClear.2 mph43%29.71 "Hg10 mi
8:00 PM86 °FClear.2 mph40%29.71 "Hg10 mi
7:00 PM91 °FClear.5 mph32%29.68 "Hg10 mi
6:00 PM95 °FSunny.8 mph26%29.68 "Hg10 mi
Weather by CustomWeather, © 2015

See weather overviewHow to use our weather pages